Algona, IA

3:12 PM CDT on August 24, 2016 (GMT -0500)
Algona Municipal

Weather History for KAXA - October, 2013

Change the Weather History Date:

Friday, October 18, 2013

  Actual Average Record
Temperature  
Mean Temperature 43 °F -  
Max Temperature 51 °F 57 °F 80 °F (2003)
Min Temperature 35 °F 37 °F 32 °F (1999)
Degree Days  
Heating Degree Days 22    
Moisture  
Dew Point 31 °F    
Average Humidity 65    
Maximum Humidity 93    
Minimum Humidity 35    
Precipitation  
Precipitation 0.00 in - - ()
Sea Level Pressure  
Sea Level Pressure 29.97 in    
Wind  
Wind Speed 11 mph (WNW)    
Max Wind Speed 15 mph    
Max Gust Speed 23 mph    
Visibility 10 miles    
Events      
Averages and records for this station are not official NWS values.
T = Trace of Precipitation, MM = Missing Value Source: NWS Daily Summary

Daily Weather History Graph

Daily Weather History Graph

Search for Another Location

Airport or City:

Trip Planner

Search our weather history database for the weather conditions in past years. The results will help you decide how hot, cold, wet, or windy it might be!

Date:

Astronomy

Oct. 18, 2013 Rise Set
Actual Time 7:34 AM CDT 6:29 PM CDT
Civil Twilight 7:05 AM CDT 6:57 PM CDT
Nautical Twilight 6:32 AM CDT 7:30 PM CDT
Astronomical Twilight 5:59 AM CDT 8:03 PM CDT
Moon 6:18 PM CDT (10/18) 7:11 AM CDT (10/18)
Length of Visible Light 11h 51m
Length of Day
10h 54m
Full, 100% of the Moon is Illuminated
Oct 18
Full
Oct 18
Full
Oct 26
Last Quarter
Nov 3
New
Nov 9
First Quarter

Hourly Weather History & Observations

Time (CDT) Temp. Windchill Dew Point Humidity Pressure Visibility Wind Dir Wind Speed Gust Speed Precip Events Conditions
12:15 AM 42.8 °F 35.4 °F 37.4 °F 81% 29.94 in 10.0 mi NW 15.0 mph 21.9 mph N/A   Overcast
12:35 AM 41.0 °F 33.1 °F 37.4 °F 87% 29.94 in 10.0 mi NW 15.0 mph 23.0 mph N/A   Overcast
12:55 AM 41.0 °F 33.5 °F 35.6 °F 81% 29.94 in 10.0 mi NW 13.8 mph 21.9 mph N/A   Overcast
1:15 AM 41.0 °F 33.9 °F 37.4 °F 87% 29.94 in 10.0 mi NW 12.7 mph - N/A   Overcast
1:35 AM 41.0 °F 34.7 °F 35.6 °F 81% 29.94 in 10.0 mi NW 10.4 mph - N/A   Overcast
1:55 AM 41.0 °F 35.2 °F 35.6 °F 81% 29.93 in 10.0 mi NW 9.2 mph 15.0 mph N/A   Overcast
2:15 AM 39.2 °F 33.0 °F 35.6 °F 87% 29.93 in 10.0 mi WNW 9.2 mph - N/A   Overcast
2:35 AM 39.2 °F 33.0 °F 35.6 °F 87% 29.94 in 10.0 mi WNW 9.2 mph - N/A   Overcast
2:55 AM 37.4 °F 30.8 °F 35.6 °F 93% 29.94 in 10.0 mi WNW 9.2 mph - N/A   Overcast
3:15 AM 37.4 °F 30.3 °F 35.6 °F 93% 29.95 in 10.0 mi West 10.4 mph - N/A   Overcast
3:35 AM 39.2 °F 32.0 °F 35.6 °F 87% 29.95 in 10.0 mi WNW 11.5 mph - N/A   Overcast
3:55 AM 39.2 °F 32.5 °F 35.6 °F 87% 29.95 in 10.0 mi WNW 10.4 mph - N/A   Overcast
4:15 AM 39.2 °F 33.0 °F 35.6 °F 87% 29.96 in 10.0 mi WNW 9.2 mph 15.0 mph N/A   Overcast
4:35 AM 39.2 °F 33.0 °F 35.6 °F 87% 29.95 in 10.0 mi WNW 9.2 mph 16.1 mph N/A   Overcast
4:55 AM 39.2 °F 32.5 °F 35.6 °F 87% 29.95 in 10.0 mi WNW 10.4 mph - N/A   Overcast
5:15 AM 39.2 °F 32.5 °F 35.6 °F 87% 29.96 in 10.0 mi WNW 10.4 mph - N/A   Overcast
5:35 AM 39.2 °F 33.0 °F 35.6 °F 87% 29.98 in 10.0 mi WNW 9.2 mph - N/A   Overcast
5:55 AM 39.2 °F 33.0 °F 33.8 °F 81% 29.97 in 10.0 mi NW 9.2 mph - N/A   Overcast
6:15 AM 39.2 °F 32.0 °F 33.8 °F 81% 29.98 in 10.0 mi NW 11.5 mph - N/A   Partly Cloudy
6:35 AM 37.4 °F 31.4 °F 32.0 °F 81% 29.99 in 10.0 mi WNW 8.1 mph 16.1 mph N/A   Partly Cloudy
6:55 AM 37.4 °F 30.8 °F 32.0 °F 81% 29.99 in 10.0 mi WNW 9.2 mph 15.0 mph N/A   Overcast
7:15 AM 37.4 °F 30.8 °F 32.0 °F 81% 30.00 in 10.0 mi WNW 9.2 mph - N/A   Overcast
7:35 AM 35.6 °F 28.6 °F 32.0 °F 87% 30.00 in 10.0 mi WNW 9.2 mph - N/A   Scattered Clouds
7:55 AM 35.6 °F 28.6 °F 32.0 °F 87% 30.00 in 10.0 mi WNW 9.2 mph - N/A   Clear
8:15 AM 35.6 °F 28.6 °F 32.0 °F 87% 30.01 in 10.0 mi NW 9.2 mph - N/A   Clear
8:35 AM 37.4 °F 30.3 °F 32.0 °F 81% 30.01 in 10.0 mi NW 10.4 mph - N/A   Clear
8:55 AM 37.4 °F 30.8 °F 32.0 °F 81% 30.01 in 10.0 mi NW 9.2 mph - N/A   Clear
9:15 AM 39.2 °F 32.0 °F 32.0 °F 75% 30.02 in 10.0 mi NW 11.5 mph - N/A   Clear
9:35 AM 41.0 °F 34.7 °F 32.0 °F 70% 30.02 in 10.0 mi NW 10.4 mph 17.3 mph N/A   Clear
9:55 AM 42.8 °F 36.6 °F 32.0 °F 66% 30.02 in 10.0 mi NNW 11.5 mph - N/A   Clear
10:15 AM 42.8 °F 37.0 °F 32.0 °F 66% 30.03 in 10.0 mi NW 10.4 mph - N/A   Clear
10:35 AM 44.6 °F 39.7 °F 32.0 °F 61% 30.03 in 10.0 mi WNW 9.2 mph - N/A   Clear
10:55 AM 46.4 °F 40.4 °F 30.2 °F 53% 30.03 in 10.0 mi NNW 13.8 mph - N/A   Clear
11:15 AM 46.4 °F 40.4 °F 30.2 °F 53% 30.03 in 10.0 mi NW 13.8 mph - N/A   Clear
11:35 AM 48.2 °F - 26.6 °F 43% 30.03 in 10.0 mi NW 12.7 mph 21.9 mph N/A   Partly Cloudy
11:55 AM 48.2 °F - 26.6 °F 43% 30.02 in 10.0 mi NNW 10.4 mph 20.7 mph N/A   Scattered Clouds
12:15 PM 50.0 °F - 26.6 °F 40% 30.02 in 10.0 mi NNW 11.5 mph 21.9 mph N/A   Scattered Clouds
12:35 PM 48.2 °F - 26.6 °F 43% 30.02 in 10.0 mi NNW 12.7 mph - N/A   Mostly Cloudy
12:55 PM 50.0 °F - 26.6 °F 40% 30.00 in 10.0 mi NW 13.8 mph - N/A   Mostly Cloudy
1:15 PM 50.0 °F - 24.8 °F 37% 29.99 in 10.0 mi NNW 8.1 mph 17.3 mph N/A   Mostly Cloudy
1:35 PM 50.0 °F - 26.6 °F 40% 29.99 in 10.0 mi WNW 9.2 mph 18.4 mph N/A   Scattered Clouds
1:55 PM 51.8 °F - 26.6 °F 38% 29.99 in 10.0 mi WNW 8.1 mph 16.1 mph N/A   Clear
2:15 PM 50.0 °F - 24.8 °F 37% 29.98 in 10.0 mi NW 12.7 mph - N/A   Partly Cloudy
2:35 PM 50.0 °F - 24.8 °F 37% 29.97 in 10.0 mi NW 12.7 mph - N/A   Partly Cloudy
2:55 PM 50.0 °F - 24.8 °F 37% 29.96 in 10.0 mi NW 9.2 mph - N/A   Clear
3:15 PM 50.0 °F - 23.0 °F 35% 29.96 in 10.0 mi NW 12.7 mph - N/A   Scattered Clouds
3:35 PM 50.0 °F - 24.8 °F 37% 29.96 in 10.0 mi WNW 9.2 mph 18.4 mph N/A   Mostly Cloudy
3:55 PM 50.0 °F - 23.0 °F 35% 29.96 in 10.0 mi NW 5.8 mph 12.7 mph N/A   Mostly Cloudy
4:15 PM 50.0 °F - 23.0 °F 35% 29.96 in 10.0 mi WNW 10.4 mph - N/A   Scattered Clouds
4:35 PM 50.0 °F - 23.0 °F 35% 29.96 in 10.0 mi WNW 9.2 mph - N/A   Mostly Cloudy
4:55 PM 50.0 °F - 24.8 °F 37% 29.95 in 10.0 mi WNW 9.2 mph - N/A   Overcast
5:15 PM 50.0 °F - 24.8 °F 37% 29.95 in 10.0 mi WNW 8.1 mph - N/A   Overcast
5:35 PM 50.0 °F - 24.8 °F 37% 29.95 in 10.0 mi WNW 6.9 mph - N/A   Overcast
5:55 PM 48.2 °F - 26.6 °F 43% 29.95 in 10.0 mi West 4.6 mph - N/A   Overcast
6:15 PM 48.2 °F - 28.4 °F 46% 29.95 in 10.0 mi West 4.6 mph - N/A   Overcast
6:35 PM 46.4 °F 44.3 °F 30.2 °F 53% 29.95 in 10.0 mi West 4.6 mph - N/A   Overcast
6:55 PM 44.6 °F 41.4 °F 30.2 °F 57% 29.95 in 10.0 mi WSW 5.8 mph - N/A   Overcast
7:15 PM 44.6 °F 41.4 °F 30.2 °F 57% 29.95 in 10.0 mi WSW 5.8 mph - N/A   Overcast
7:35 PM 46.4 °F 43.5 °F 30.2 °F 53% 29.95 in 9.0 mi SW 5.8 mph - N/A   Overcast
7:55 PM 42.8 °F 39.3 °F 30.2 °F 61% 29.95 in 10.0 mi WSW 5.8 mph - N/A   Overcast
8:15 PM 41.0 °F 37.1 °F 30.2 °F 65% 29.94 in 10.0 mi SW 5.8 mph - N/A   Overcast
8:35 PM 39.2 °F 35.0 °F 30.2 °F 70% 29.94 in 10.0 mi SW 5.8 mph - N/A   Mostly Cloudy
8:55 PM 41.0 °F 36.4 °F 30.2 °F 65% 29.93 in 10.0 mi SW 6.9 mph - N/A   Overcast
9:15 PM 39.2 °F 34.2 °F 30.2 °F 70% 29.93 in 10.0 mi WSW 6.9 mph - N/A   Overcast
9:35 PM 37.4 °F 32.1 °F 30.2 °F 75% 29.93 in 10.0 mi SW 6.9 mph - N/A   Scattered Clouds
9:55 PM 37.4 °F 32.8 °F 30.2 °F 75% 29.92 in 10.0 mi SW 5.8 mph - N/A   Clear
10:15 PM 41.0 °F 34.7 °F 30.2 °F 65% 29.93 in 10.0 mi West 10.4 mph - N/A   Mostly Cloudy
10:35 PM 41.0 °F 35.2 °F 30.2 °F 65% 29.93 in 10.0 mi West 9.2 mph - N/A   Overcast
10:55 PM 39.2 °F 33.6 °F 32.0 °F 75% 29.92 in 10.0 mi West 8.1 mph - N/A   Overcast
11:15 PM 37.4 °F 32.8 °F 30.2 °F 75% 29.92 in 10.0 mi West 5.8 mph - N/A   Overcast
11:35 PM 37.4 °F 32.8 °F 32.0 °F 81% 29.91 in 10.0 mi West 5.8 mph - N/A   Overcast
11:55 PM 37.4 °F 32.1 °F 32.0 °F 81% 29.90 in 10.0 mi West 6.9 mph - N/A   Overcast